Selinsgrove, PA

1:11 PM EDT on July 28, 2017 (GMT -0400)
Penn Valley

Weather History for KSEG - April, 2014

Change the Weather History Date:

Saturday, April 19, 2014

  Actual Average (KIPT) Record (KIPT)
Temperature  
Mean Temperature 49 °F -  
Max Temperature 64 °F 60 °F 91 °F (1976)
Min Temperature 34 °F 38 °F 23 °F (1926)
Degree Days  
Heating Degree Days 16    
Moisture  
Dew Point 29 °F    
Average Humidity 51    
Maximum Humidity 93    
Minimum Humidity 23    
Precipitation  
Precipitation 0.00 in - - ()
Sea Level Pressure  
Sea Level Pressure 30.32 in    
Wind  
Wind Speed 5 mph (NNE)    
Max Wind Speed 16 mph    
Max Gust Speed 22 mph    
Visibility 9 miles    
Events      
Averages and records for this station are not official NWS values.
T = Trace of Precipitation, MM = Missing Value Source: NWS Daily Summary

Daily Weather History Graph

Daily Weather History Graph

Search for Another Location

Airport or City:

Trip Planner

Search our weather history database for the weather conditions in past years. The results will help you decide how hot, cold, wet, or windy it might be!

Date:

Astronomy

Apr. 19, 2014 Rise Set
Actual Time 6:22 AM EDT 7:51 PM EDT
Civil Twilight 5:53 AM EDT 8:20 PM EDT
Nautical Twilight 5:19 AM EDT 8:54 PM EDT
Astronomical Twilight 4:42 AM EDT 9:31 PM EDT
Moon No Moon Rise 9:38 AM EDT (4/19)
Length of Visible Light 14h 26m
Length of Day
13h 28m
Waning Gibbous, 79% of the Moon is Illuminated
Apr 19
Waning Gibbous
Apr 22
Last Quarter
Apr 29
New
May 6
First Quarter
May 14
Full

Hourly Weather History & Observations

Time (EDT) Temp. Windchill Dew Point Humidity Pressure Visibility Wind Dir Wind Speed Gust Speed Precip Events Conditions
12:53 AM 41.0 °F - 36.0 °F 82% 30.27 in 9.0 mi Calm Calm - N/A   Clear
1:53 AM 37.9 °F - 34.0 °F 86% 30.27 in 8.0 mi Calm Calm - N/A   Clear
2:53 AM 37.0 °F - 34.0 °F 89% 30.26 in 8.0 mi Calm Calm - N/A   Clear
3:53 AM 36.0 °F - 34.0 °F 93% 30.27 in 7.0 mi Calm Calm - N/A   Clear
5:53 AM 35.1 °F - 33.1 °F 92% 30.28 in 6.0 mi Calm Calm - N/A   Clear
6:53 AM 34.0 °F 31.0 °F 32.0 °F 92% 30.31 in 4.0 mi NW 3.5 mph - N/A   Clear
8:53 AM 46.0 °F - 37.9 °F 73% 30.34 in 8.0 mi Calm Calm - N/A   Clear
9:53 AM 54.0 °F - 34.0 °F 47% 30.35 in 10.0 mi North 11.5 mph - N/A   Clear
10:53 AM 57.0 °F - 28.9 °F 34% 30.36 in 10.0 mi NNE 15.0 mph - N/A   Clear
11:53 AM 59.0 °F - 24.1 °F 26% 30.35 in 10.0 mi NNE 15.0 mph 21.9 mph N/A   Clear
12:53 PM 61.0 °F - 26.1 °F 26% 30.32 in 10.0 mi North 12.7 mph 20.7 mph N/A   Clear
1:53 PM 62.1 °F - 26.1 °F 25% 30.32 in 10.0 mi North 12.7 mph - N/A   Clear
2:53 PM 64.0 °F - 28.0 °F 26% 30.29 in 10.0 mi North 12.7 mph - N/A   Clear
3:53 PM 64.0 °F - 27.0 °F 25% 30.29 in 10.0 mi NE 9.2 mph - N/A   Clear
4:53 PM 63.0 °F - 26.1 °F 25% 30.29 in 10.0 mi NE 15.0 mph - N/A   Clear
5:53 PM 62.1 °F - 24.1 °F 23% 30.30 in 10.0 mi NNE 16.1 mph - N/A   Clear
6:53 PM 57.9 °F - 26.1 °F 30% 30.30 in 10.0 mi North 9.2 mph - N/A   Clear
7:53 PM 55.0 °F - 24.1 °F 30% 30.32 in 10.0 mi North 9.2 mph - N/A   Clear
8:53 PM 52.0 °F - 24.1 °F 34% 30.35 in 10.0 mi North 9.2 mph - N/A   Clear
9:53 PM 51.1 °F - 27.0 °F 39% 30.37 in 10.0 mi NNE 10.4 mph - N/A   Clear
10:53 PM 48.0 °F - 28.0 °F 46% 30.38 in 10.0 mi NNE 8.1 mph - N/A   Clear
11:53 PM 41.0 °F 37.1 °F 32.0 °F 70% 30.38 in 10.0 mi North 5.8 mph - N/A   Clear